Weather History for KBKV - March, 2013

Change the Weather History Date:

Sunday, March 10, 2013

  Actual Average (KTPA) Record (KTPA)
Temperature  
Mean Temperature 66 °F 66 °F  
Max Temperature 80 °F 76 °F 87 °F (1925)
Min Temperature 53 °F 57 °F 35 °F (1932)
Degree Days  
Heating Degree Days 0 2  
Month to date heating degree days 26  
Since 1 July heating degree days 497  
Cooling Degree Days 2 4  
Month to date cooling degree days 34  
Year to date cooling degree days 147  
Growing Degree Days 16 (Base 50)    
Moisture  
Dew Point 52 °F    
Average Humidity 60    
Maximum Humidity 89    
Minimum Humidity 36    
Precipitation  
Precipitation 0.00 in 0.10 in 1.06 in (2011)
Month to date precipitation 0.97  
Year to date precipitation 6.01  
Sea Level Pressure  
Sea Level Pressure 30.13 in    
Wind  
Wind Speed 9 mph (East)    
Max Wind Speed 20 mph    
Max Gust Speed 25 mph    
Visibility 10 miles    
Events      
T = Trace of Precipitation, MM = Missing Value Source: NWS Daily Summary

Daily Weather History Graph

Daily Weather History Graph

Search for Another Location

Airport or City:

Trip Planner

Search our weather history database for the weather conditions in past years. The results will help you decide how hot, cold, wet, or windy it might be!

Date:

Astronomy

Mar. 10, 2013 Rise Set
Actual Time 7:44 AM EDT 7:35 PM EDT
Civil Twilight 7:21 AM EDT 7:59 PM EDT
Nautical Twilight 6:53 AM EDT 8:26 PM EDT
Astronomical Twilight 6:26 AM EDT 8:53 PM EDT
Moon 6:40 AM EDT (3/10) 6:42 PM EDT (3/10)
Length of Visible Light 12h 37m
Length of Day
11h 50m
Waning Crescent, 2% of the Moon is Illuminated
Mar 10
Waning Crescent
Mar 11
New
Mar 19
First Quarter
Mar 27
Full
Apr 3
Last Quarter

Hourly Weather History & Observations

Time (EDT) Temp. Dew Point Humidity Pressure Visibility Wind Dir Wind Speed Gust Speed Precip Events Conditions
12:53 AM 59.0 °F 51.1 °F 75% 30.18 in 10.0 mi ENE 10.4 mph - N/A   Clear
1:53 AM 59.0 °F 52.0 °F 78% 30.17 in 10.0 mi East 9.2 mph - N/A   Clear
3:53 AM 59.0 °F 52.0 °F 78% 30.15 in 10.0 mi East 6.9 mph - N/A   Clear
4:53 AM 57.0 °F 52.0 °F 83% 30.14 in 10.0 mi East 6.9 mph - N/A   Clear
5:53 AM 55.9 °F 51.1 °F 84% 30.15 in 10.0 mi ENE 5.8 mph - N/A   Clear
6:53 AM 53.1 °F 50.0 °F 89% 30.16 in 10.0 mi ENE 4.6 mph - N/A   Clear
8:53 AM 59.0 °F 52.0 °F 78% 30.19 in 10.0 mi ENE 4.6 mph - N/A   Clear
9:53 AM 64.0 °F 52.0 °F 65% 30.18 in 10.0 mi East 9.2 mph - N/A   Clear
10:53 AM 70.0 °F 52.0 °F 53% 30.18 in 10.0 mi East 11.5 mph - N/A   Clear
11:53 AM 73.9 °F 51.1 °F 45% 30.13 in 10.0 mi ESE 19.6 mph 25.3 mph N/A   Clear
12:53 PM 77.0 °F 50.0 °F 39% 30.14 in 10.0 mi SE 15.0 mph 19.6 mph N/A   Clear
1:53 PM 79.0 °F 50.0 °F 36% 30.12 in 10.0 mi East 10.4 mph 20.7 mph N/A   Clear
2:53 PM 79.0 °F 50.0 °F 36% 30.09 in 10.0 mi East 12.7 mph - N/A   Clear
3:53 PM 80.1 °F 51.1 °F 36% 30.09 in 10.0 mi East 9.2 mph - N/A   Scattered Clouds
4:53 PM 79.0 °F 51.1 °F 38% 30.07 in 10.0 mi East 13.8 mph 17.3 mph N/A   Overcast
5:53 PM 79.0 °F 51.1 °F 38% 30.07 in 10.0 mi ESE 10.4 mph - N/A   Scattered Clouds
6:53 PM 75.9 °F 51.1 °F 42% 30.08 in 10.0 mi ESE 8.1 mph - N/A   Mostly Cloudy
7:53 PM 69.1 °F 52.0 °F 54% 30.09 in 10.0 mi NW 9.2 mph - N/A   Scattered Clouds
8:53 PM 64.9 °F 52.0 °F 63% 30.12 in 10.0 mi Calm Calm - N/A   Clear
9:53 PM 64.9 °F 53.1 °F 65% 30.13 in 10.0 mi ESE 5.8 mph - N/A   Clear
10:53 PM 66.0 °F 54.0 °F 65% 30.13 in 10.0 mi ESE 4.6 mph - N/A   Overcast
11:53 PM 66.0 °F 53.1 °F 63% 30.13 in 10.0 mi ESE 9.2 mph - N/A   Overcast
12:53 AM 62.1 °F 53.1 °F 72% 30.13 in 10.0 mi ESE 4.6 mph - N/A   Partly Cloudy